Tracking 19563 objects as of 20-Mar-2019
HD Live streaming from Space Station
objects crossing your sky now

GEOS 2

Track GEOS 2 now!
GEOS 2 is classified as:


NORAD ID: 10981
Int'l Code: 1978-071A
Perigee: 36,018.8 km
Apogee: 36,076.0 km
Inclination: 11.7 °
Period: 1,449.1 minutes
Semi major axis: 42418 km
RCS: 2.0304 m2 (large)
Launch date: July 14, 1978
Source: European Space Agency (ESA)
Launch site: AIR FORCE EASTERN TEST RANGE (AFETR)
aabbcc
Your satellite tracking list
Your tracking list is empty




NASA's NSSDC Master Catalog

Two Line Element Set (TLE):
1 10981U 78071A   19078.15530153 +.00000059 +00000-0 +00000-0 0  9994
2 10981 011.6897 315.6259 0006752 340.1126 003.7023 00.99373699147665
Source of the keplerian elements: AFSPC